RYR378 LOWL-EPKT

Flight info

Callsign RYR378
Flight time 0h 44m
Altitude 29000
Route PEROL DCT NAVTI DCT UPLAV DCT OGDAS DCT BAVOK
Aircraft B738/M-SDE2E3FGHIRWXY/LB1

Departure

Time 2026-04-14 09:33
Airport Linz-Hörsching Airport (LOWL)

Arrival

Time 2026-04-14 10:17
Airport Katowice Wojciech Korfanty International Airport (EPKT)
Time Latitude Longitude Altitude Speed Heading
2026-04-14 09:18 48.23847 14.19284 984 ft 0 kts 87°
2026-04-14 09:27 48.23848 14.19304 978 ft 5 kts 87°
2026-04-14 09:28 48.23822 14.19345 975 ft 6 kts 167°
2026-04-14 09:28 48.23781 14.19355 974 ft 6 kts 161°
2026-04-14 09:28 48.23762 14.19408 976 ft 7 kts 97°
2026-04-14 09:28 48.23764 14.19491 972 ft 10 kts 85°
2026-04-14 09:29 48.23754 14.19593 967 ft 11 kts 132°
2026-04-14 09:29 48.23687 14.19636 967 ft 10 kts 159°
2026-04-14 09:29 48.23625 14.19671 968 ft 9 kts 159°
2026-04-14 09:29 48.23572 14.19702 969 ft 8 kts 158°
2026-04-14 09:30 48.23522 14.19733 979 ft 8 kts 158°
2026-04-14 09:30 48.23472 14.19762 977 ft 8 kts 159°
2026-04-14 09:30 48.23408 14.19798 979 ft 12 kts 158°
2026-04-14 09:30 48.23361 14.19908 976 ft 15 kts 92°
2026-04-14 09:31 48.23367 14.20083 975 ft 18 kts 87°
2026-04-14 09:31 48.23374 14.20285 972 ft 20 kts 86°
2026-04-14 09:31 48.23390 14.20462 971 ft 12 kts 65°
2026-04-14 09:31 48.23411 14.20543 978 ft 6 kts 99°
2026-04-14 09:32 48.23385 14.20541 978 ft 4 kts 226°
2026-04-14 09:32 48.23380 14.20496 977 ft 5 kts 268°
2026-04-14 09:32 48.23369 14.20142 974 ft 61 kts 267°
2026-04-14 09:33 48.23334 14.19150 978 ft 127 kts 267°
2026-04-14 09:33 48.23281 14.17562 1112 ft 167 kts 268°
2026-04-14 09:33 48.23221 14.15847 1964 ft 160 kts 266°
2026-04-14 09:33 48.23158 14.14182 2812 ft 162 kts 267°
2026-04-14 09:34 48.23127 14.12337 3235 ft 194 kts 279°
2026-04-14 09:34 48.23853 14.10633 3682 ft 208 kts 326°
2026-04-14 09:34 48.25276 14.10169 4267 ft 218 kts
2026-04-14 09:34 48.26678 14.11056 4869 ft 224 kts 40°
2026-04-14 09:35 48.27541 14.12985 5523 ft 223 kts 68°
2026-04-14 09:35 48.28159 14.15217 5882 ft 243 kts 67°
2026-04-14 09:35 48.28853 14.17625 6356 ft 256 kts 66°
2026-04-14 09:35 48.29574 14.20087 6932 ft 258 kts 66°
2026-04-14 09:36 48.30049 14.22636 7500 ft 258 kts 86°
2026-04-14 09:36 48.30111 14.25342 8073 ft 260 kts 89°
2026-04-14 09:36 48.30177 14.28073 8627 ft 261 kts 88°
2026-04-14 09:36 48.30255 14.30805 9211 ft 261 kts 90°
2026-04-14 09:37 48.29950 14.33466 9736 ft 260 kts 116°
2026-04-14 09:37 48.29057 14.35829 10294 ft 260 kts 122°
2026-04-14 09:37 48.28129 14.38177 10657 ft 273 kts 122°
2026-04-14 09:37 48.27121 14.40743 10812 ft 295 kts 121°
2026-04-14 09:38 48.26042 14.43507 11012 ft 317 kts 121°
2026-04-14 09:38 48.25094 14.46619 11169 ft 341 kts 103°
2026-04-14 09:38 48.25088 14.50238 11608 ft 355 kts 79°
2026-04-14 09:38 48.25960 14.53694 12266 ft 361 kts 66°
2026-04-14 09:39 48.27039 14.57120 12931 ft 365 kts 66°
2026-04-14 09:39 48.28155 14.60563 13594 ft 369 kts 65°
2026-04-14 09:39 48.29285 14.64045 14229 ft 373 kts 65°
2026-04-14 09:39 48.30420 14.67572 14865 ft 377 kts 66°
2026-04-14 09:40 48.31563 14.71155 15518 ft 382 kts 66°
2026-04-14 09:40 48.32710 14.74779 16133 ft 386 kts 66°
2026-04-14 09:40 48.33863 14.78444 16748 ft 389 kts 66°
2026-04-14 09:40 48.35007 14.82097 17338 ft 393 kts 66°
2026-04-14 09:41 48.36173 14.85833 17986 ft 396 kts 67°
2026-04-14 09:41 48.37347 14.89604 18535 ft 400 kts 67°
2026-04-14 09:41 48.38532 14.93419 19038 ft 404 kts 67°
2026-04-14 09:41 48.39731 14.97282 19574 ft 408 kts 67°
2026-04-14 09:42 48.40931 15.01156 20117 ft 411 kts 67°
2026-04-14 09:42 48.42138 15.05055 20536 ft 411 kts 66°
2026-04-14 09:42 48.43348 15.08976 20755 ft 415 kts 66°
2026-04-14 09:42 48.44557 15.12894 21013 ft 419 kts 66°
2026-04-14 09:43 48.45782 15.16875 21358 ft 423 kts 66°
2026-04-14 09:43 48.47023 15.20913 21892 ft 426 kts 66°
2026-04-14 09:43 48.48269 15.24972 22470 ft 427 kts 66°
2026-04-14 09:43 48.49521 15.29057 22960 ft 430 kts 66°
2026-04-14 09:44 48.50780 15.33175 23438 ft 433 kts 66°
2026-04-14 09:44 48.52052 15.37337 23858 ft 437 kts 66°
2026-04-14 09:44 48.53304 15.41445 24234 ft 439 kts 66°
2026-04-14 09:44 48.54584 15.45649 24596 ft 442 kts 66°
2026-04-14 09:45 48.55871 15.49885 24990 ft 445 kts 66°
2026-04-14 09:45 48.57165 15.54152 25395 ft 447 kts 66°
2026-04-14 09:45 48.58465 15.58446 25778 ft 450 kts 66°
2026-04-14 09:45 48.59766 15.62751 26132 ft 452 kts 66°
2026-04-14 09:46 48.61080 15.67107 26496 ft 455 kts 66°
2026-04-14 09:46 48.62380 15.71422 26852 ft 457 kts 66°
2026-04-14 09:46 48.63700 15.75815 27202 ft 460 kts 66°
2026-04-14 09:46 48.65030 15.80244 27538 ft 462 kts 66°
2026-04-14 09:47 48.66362 15.84691 27912 ft 463 kts 67°
2026-04-14 09:47 48.67689 15.89129 28463 ft 460 kts 67°
2026-04-14 09:47 48.69005 15.93536 29024 ft 458 kts 67°
2026-04-14 09:48 48.71633 16.02366 29099 ft 464 kts 67°
2026-04-14 09:48 48.74265 16.11239 29084 ft 457 kts 67°
2026-04-14 09:49 48.76882 16.20044 29102 ft 459 kts 65°
2026-04-14 09:49 48.80149 16.28328 29098 ft 461 kts 57°
2026-04-14 09:50 48.83726 16.36455 29099 ft 462 kts 57°
2026-04-14 09:50 48.87270 16.44606 29095 ft 462 kts 58°
2026-04-14 09:51 48.90761 16.52792 29108 ft 460 kts 58°
2026-04-14 09:51 48.94194 16.60919 29117 ft 459 kts 58°
2026-04-14 09:52 48.97630 16.69081 29119 ft 457 kts 58°
2026-04-14 09:52 49.01061 16.77253 29123 ft 456 kts 58°
2026-04-14 09:53 49.04458 16.85363 29120 ft 455 kts 59°
2026-04-14 09:53 49.07863 16.93519 29097 ft 455 kts 59°
2026-04-14 09:54 49.10692 17.00314 29099 ft 455 kts 59°
2026-04-14 09:54 49.14083 17.08481 29102 ft 455 kts 59°
2026-04-14 09:55 49.17475 17.16678 29104 ft 455 kts 59°
2026-04-14 09:55 49.20836 17.24823 29104 ft 455 kts 59°
2026-04-14 09:56 49.24217 17.33042 29092 ft 456 kts 59°
2026-04-14 09:56 49.27588 17.41262 29071 ft 450 kts 59°
2026-04-14 09:56 49.29222 17.45254 28673 ft 443 kts 59°
2026-04-14 09:57 49.30852 17.49228 28261 ft 436 kts 58°
2026-04-14 09:57 49.32689 17.52895 27803 ft 431 kts 48°
2026-04-14 09:57 49.34873 17.56035 27306 ft 428 kts 38°
2026-04-14 09:57 49.37229 17.58795 26867 ft 423 kts 37°
2026-04-14 09:58 49.39560 17.61473 26392 ft 420 kts 37°
2026-04-14 09:58 49.41891 17.64154 25932 ft 417 kts 37°
2026-04-14 09:58 49.44205 17.66839 25475 ft 414 kts 37°
2026-04-14 09:58 49.46494 17.69517 25023 ft 412 kts 37°
2026-04-14 09:59 49.48756 17.72182 24573 ft 409 kts 37°
2026-04-14 09:59 49.51017 17.74856 24125 ft 407 kts 37°
2026-04-14 09:59 49.53258 17.77513 23660 ft 405 kts 37°
2026-04-14 09:59 49.55461 17.80127 23147 ft 403 kts 37°
2026-04-14 10:00 49.57676 17.82760 22659 ft 401 kts 37°
2026-04-14 10:00 49.59875 17.85376 22226 ft 397 kts 38°
2026-04-14 10:00 49.62053 17.87969 21763 ft 394 kts 38°
2026-04-14 10:00 49.64219 17.90552 21317 ft 391 kts 38°
2026-04-14 10:01 49.66391 17.93142 20882 ft 388 kts 38°
2026-04-14 10:01 49.68491 17.95651 20453 ft 386 kts 38°
2026-04-14 10:01 49.70672 17.98065 20006 ft 384 kts 31°
2026-04-14 10:01 49.73063 17.99939 19476 ft 385 kts 25°
2026-04-14 10:02 49.75497 18.01655 19014 ft 383 kts 24°
2026-04-14 10:02 49.77931 18.03353 18578 ft 382 kts 24°
2026-04-14 10:02 49.80315 18.05031 18127 ft 380 kts 25°
2026-04-14 10:02 49.82721 18.06743 17650 ft 378 kts 25°
2026-04-14 10:03 49.85104 18.08457 17197 ft 375 kts 25°
2026-04-14 10:03 49.87465 18.10163 16769 ft 373 kts 25°
2026-04-14 10:03 49.89815 18.11868 16340 ft 370 kts 25°
2026-04-14 10:03 49.92113 18.13538 15939 ft 367 kts 25°
2026-04-14 10:04 49.94423 18.15217 15528 ft 365 kts 25°
2026-04-14 10:04 49.96691 18.16868 15125 ft 363 kts 25°
2026-04-14 10:04 49.98999 18.18568 14707 ft 361 kts 28°
2026-04-14 10:04 50.00966 18.20937 14366 ft 356 kts 51°
2026-04-14 10:05 50.02426 18.23983 14073 ft 350 kts 57°
2026-04-14 10:05 50.03771 18.27077 13669 ft 348 kts 58°
2026-04-14 10:05 50.05114 18.30218 13238 ft 347 kts 57°
2026-04-14 10:05 50.06456 18.33334 12815 ft 346 kts 57°
2026-04-14 10:06 50.07809 18.36444 12400 ft 345 kts 57°
2026-04-14 10:06 50.09163 18.39533 11988 ft 344 kts 57°
2026-04-14 10:06 50.10513 18.42603 11583 ft 342 kts 56°
2026-04-14 10:06 50.11840 18.45618 11127 ft 343 kts 56°
2026-04-14 10:07 50.13197 18.48686 10861 ft 337 kts 55°
2026-04-14 10:07 50.14656 18.51526 10650 ft 330 kts 50°
2026-04-14 10:07 50.16140 18.54151 10508 ft 322 kts 49°
2026-04-14 10:07 50.17611 18.56726 10369 ft 314 kts 49°
2026-04-14 10:08 50.19035 18.59250 10246 ft 306 kts 50°
2026-04-14 10:08 50.20416 18.61734 10106 ft 299 kts 50°
2026-04-14 10:08 50.21762 18.64152 10048 ft 289 kts 47°
2026-04-14 10:08 50.23365 18.65894 9891 ft 284 kts 19°
2026-04-14 10:09 50.25266 18.66409 9550 ft 280 kts 358°
2026-04-14 10:09 50.27228 18.66187 9081 ft 280 kts 354°
2026-04-14 10:09 50.29172 18.65875 8660 ft 280 kts 353°
2026-04-14 10:09 50.31116 18.65565 8292 ft 278 kts 354°
2026-04-14 10:10 50.33009 18.65281 8203 ft 265 kts 354°
2026-04-14 10:10 50.34776 18.65028 8027 ft 253 kts 354°
2026-04-14 10:10 50.36525 18.64782 7553 ft 252 kts 354°
2026-04-14 10:10 50.38281 18.64535 7067 ft 253 kts 354°
2026-04-14 10:11 50.40039 18.64393 6603 ft 253 kts 359°
2026-04-14 10:11 50.41791 18.64396 6153 ft 251 kts 359°
2026-04-14 10:11 50.43536 18.64409 5718 ft 250 kts 359°
2026-04-14 10:11 50.45256 18.64582 5389 ft 247 kts 15°
2026-04-14 10:12 50.46677 18.65910 5138 ft 239 kts 49°
2026-04-14 10:12 50.47476 18.68131 4911 ft 229 kts 77°
2026-04-14 10:12 50.47658 18.70491 4802 ft 213 kts 93°
2026-04-14 10:12 50.47654 18.72779 4608 ft 208 kts 93°
2026-04-14 10:13 50.47648 18.75040 4412 ft 206 kts 93°
2026-04-14 10:13 50.47643 18.77283 4215 ft 205 kts 93°
2026-04-14 10:13 50.47639 18.79526 4014 ft 205 kts 93°
2026-04-14 10:13 50.47635 18.81760 3808 ft 208 kts 93°
2026-04-14 10:14 50.47633 18.84034 3587 ft 206 kts 93°
2026-04-14 10:14 50.47631 18.86257 3376 ft 203 kts 92°
2026-04-14 10:14 50.47630 18.88462 3162 ft 198 kts 92°
2026-04-14 10:14 50.47627 18.90624 2939 ft 198 kts 92°
2026-04-14 10:15 50.47625 18.92788 2647 ft 195 kts 92°
2026-04-14 10:15 50.47625 18.94843 2360 ft 185 kts 92°
2026-04-14 10:15 50.47624 18.96804 2110 ft 174 kts 92°
2026-04-14 10:15 50.47621 18.98617 1925 ft 160 kts 92°
2026-04-14 10:16 50.47617 19.00318 1691 ft 154 kts 92°
2026-04-14 10:16 50.47618 19.02000 1491 ft 153 kts 92°
2026-04-14 10:16 50.47613 19.03656 1298 ft 151 kts 90°
2026-04-14 10:16 50.47610 19.05292 1097 ft 148 kts 91°
2026-04-14 10:17 50.47603 19.06868 999 ft 136 kts 91°
2026-04-14 10:17 50.47598 19.08117 996 ft 95 kts 90°
2026-04-14 10:17 50.47596 19.08918 999 ft 52 kts 90°
2026-04-14 10:17 50.47597 19.09278 1000 ft 11 kts 89°
2026-04-14 10:18 50.47507 19.09390 1004 ft 10 kts 181°
2026-04-14 10:18 50.47442 19.09390 1001 ft 9 kts 180°
2026-04-14 10:18 50.47378 19.09390 999 ft 9 kts 180°
2026-04-14 10:19 50.47316 19.09391 998 ft 9 kts 179°
2026-04-14 10:19 50.47256 19.09383 1000 ft 9 kts 201°
2026-04-14 10:19 50.47228 19.09309 997 ft 9 kts 268°
2026-04-14 10:19 50.47230 19.09198 1003 ft 12 kts 272°
2026-04-14 10:20 50.47231 19.09045 1003 ft 16 kts 270°
2026-04-14 10:20 50.47231 19.08868 1003 ft 16 kts 270°
2026-04-14 10:20 50.47231 19.08698 1003 ft 15 kts 270°
2026-04-14 10:20 50.47231 19.08534 1003 ft 15 kts 270°
2026-04-14 10:21 50.47232 19.08377 997 ft 14 kts 270°
2026-04-14 10:21 50.47233 19.08196 1003 ft 18 kts 270°
2026-04-14 10:21 50.47233 19.08003 1000 ft 17 kts 270°
2026-04-14 10:21 50.47233 19.07816 1002 ft 17 kts 270°
2026-04-14 10:22 50.47233 19.07638 1002 ft 16 kts 270°
2026-04-14 10:22 50.47233 19.07496 1002 ft 10 kts 270°
2026-04-14 10:22 50.47234 19.07389 1000 ft 10 kts 271°
2026-04-14 10:22 50.47235 19.07284 1000 ft 9 kts 271°
2026-04-14 10:23 50.47235 19.07226 1001 ft 5 kts 268°
2026-04-14 10:23 50.47207 19.07212 998 ft 3 kts 181°
2026-04-14 10:23 50.47187 19.07212 1001 ft 2 kts 179°
2026-04-14 10:23 50.47180 19.07212 997 ft 0 kts 179°